STARLINK-32480, 62039

Orbit data source: Space-Track

STARLINK-32480, 62039 is a payload satellite owned by SpaceX/Seattle (US) in LEO that was launched on Thu, 21 Nov 2024 UTC via an FALCON 9 launch vehicle from the Air Force Eastern Test Range (AFETR). Payload-class satellites include a variety of spacecraft equipped with specific instruments for various scientific and technological missions. These include communications satellites like Starlink; space stations such as the ISS; scientific satellites like the Hubble; Earth observation satellites from companies like Planet Labs, Umbra, and HawkEye 360; GPS; miniature CubeSats for education and research; and military/defense satellites.

Loading next visibility...
Identifier
62039, 2024-216H
Orbit
LEO
Last TLE update
19 hours ago
Origin
Manufacturer
SpaceX/Seattle
Mission
Operational Commercial Communications
Bus & Motor
STARLINK V2M, Unknown motor
Mass
730 kg wet, ~700 kg dry
Launch date (UTC)
2024-11-21 (6 months ago)
Launch vehicle
FALCON 9
Launch site
Air Force Eastern Test Range (AFETR)
Object type
Payload
Rocket body
Debris
Shape & HBR
Box + 2 Pan, 29 m
Radar Cross Section
36.964 m², Large (>1 m²)

Expand to show TLE details & history

TLE from 19 hours ago
0 STARLINK-32480
1 62039U 24216H   25128.43604835 -.00008060  00000-0 -18561-3 0  9996
2 62039  43.0026 186.0714 0002231 277.0215  83.0388 15.40739481 26949
Epoch: 2025-05-08T10:27Z
Definitive object data (Epoch: 2025-05-08T10:27:54.577Z)
Latitude
-0°
Longitude
162.58742°
Altitude
443.516 km
Speed
7.648 km/s
True Right ascension
12h 24m 17s
True Declination
0° 00' 00"
Sunlit
Object was in full shadow at TLE epoch
Visualization TLE readout
Latitude
33.69957°
Longitude
-67.35438°
Altitude
446.566 km
Speed
7.649 km/s
Apparent Right ascension
23h 14m 49s
Apparent Declination
-2° 01' 23"
Sunlit
Object is in daylight
Visualization observer readout
Local Sidereal Time
13:49:26
Azimuth
52.809° ENE
Elevation
-38.405°
Doppler factor
1
Orbital elements
Apogee altitude
447.404 km
Perigee altitude
444.359 km
Semi-major axis
6,824.018 km
Eccentricity
0.0002231
Inclination
43.0026°
RAAN
186.0714°
Arg. of periapsis
277.0215°
True anomaly
83.06418°
Mean anomaly
83.0388°
Eccentric anomaly
83.05149°
Mean motion
3.8502 °/min
BSTAR
-0.00018561
Orbital period
93.5 mins
Loading maneuver chart data...
Loading SW <> Apogee altitude chart data...
Loading historical data...
Loading historical data...
Loading historical data...
Loading historical data...
Loading historical data...
Loading historical data...
Loading historical data...

STARLINK-32480 Visibility forecast

Observer location: undefined°, undefined°

Span
Click to sort rows by Start time (UTC) header in descending order
Start Az.
Max El. time (UTC)
Max El. Az.
Max El.
End time (UTC)
End Az.
5 mins2025-05-09 06:53:44.285Z208.836° SW2025-05-09 06:56:44.285Z133.189° SE26.91°2025-05-09 06:58:44.285Z91.502° ESE
5 mins2025-05-09 08:31:44.285Z263.892° W2025-05-09 08:33:44.285Z293.766° NW40.621°2025-05-09 08:36:44.285Z68.021° E
5 mins2025-05-09 10:10:44.285Z298.184° NW2025-05-09 10:12:44.285Z18.441° NNE37.157°2025-05-09 10:15:44.285Z80.012° E
5 mins2025-05-09 11:48:44.285Z283.724° WNW2025-05-09 11:50:44.285Z197.085° SSW44.179°2025-05-09 11:53:44.285Z116.124° SE
|